COSMOS 2550

Last updated on Mon Sep 21 2026 00:02:09 GMT+0000 (Coordinated Universal Time)

1 48865U 21056A 26263.61838086 .00003513 00000+0 11253-3 0 9990 2 48865 67.1430 171.2266 0008344 268.2559 91.7640 15.33835224293350
UTC large
Height (km)
Speed (km/s)
/
Latitude / Longitude
Inclination (degrees)
Orbital Period (minutes)
Azimuth
Elevation
Range (km)
Doppler Factor

Next 0 passes for location: London (51.5072 / 0.1276)

No passes found over London.
COSMOS 2550